Temp
-7 -7 -7 -7 -7 -6 -6 -6 -6 -7 -7 -6 -6 -6 -6 -5 -6 -6 -6 -7 -7 -6 -6 -6 -6 -5 -5 -5 -5 -5 -5 -4 -4 -4 -5 -4 -5 -5 -5 -5 -5 -5 -5 -5 -5 -5 -5 -5 -5
-8 -7 -7 -7 -7 -7 -7 -6 -6 -7 -7 -6 -7 -7 -6 -6 -6 -6 -6 -6 -7 -7 -7 -6 -6 -6 -5 -5 -5 -5 -5 -4 -4 -4 -5 -5 -5 -5 -5 -5 -5 -5 -5 -5 -5 -5 -5 -5 -6
-8 -8 -7 -7 -7 -7 -7 -7 -7 -7 -8 -7 -7 -7 -7 -6 -6 -6 -6 -6 -6 -7 -7 -7 -6 -6 -6 -6 -5 -5 -5 -5 -5 -5 -5 -5 -5 -5 -5 -5 -5 -6 -5 -5 -5 -5 -6 -6 -6
-8 -8 -8 -7 -7 -7 -7 -7 -7 -7 -8 -8 -7 -7 -7 -7 -6 -6 -6 -6 -6 -6 -7 -7 -7 -7 -6 -6 -6 -6 -6 -6 -6 -6 -5 -6 -6 -6 -6 -6 -6 -6 -6 -6 -6 -6 -6 -7 -7
-8 -7 -7 -7 -6 -7 -7 -7 -8 -8 -8 -8 -8 -7 -7 -7 -7 -6 -6 -6 -6 -6 -7 -7 -6 -7 -7 -7 -6 -6 -6 -6 -6 -6 -6 -6 -6 -6 -6 -6 -6 -6 -6 -6 -6 -6 -6 -7 -7
-8 -8 -7 -7 -7 -7 -7 -8 -8 -8 -8 -8 -8 -8 -7 -7 -7 -7 -7 -6 -6 -6 -6 -7 -7 -6 -6 -6 -6 -6 -6 -6 -6 -6 -6 -6 -6 -6 -6 -6 -6 -6 -6 -6 -7 -7 -7 -7 -8
-8 -7 -7 -7 -7 -7 -8 -9 -8 -8 -8 -9 -8 -8 -8 -7 -7 -7 -7 -7 -7 -7 -6 -6 -7 -7 -6 -6 -6 -6 -6 -6 -6 -6 -6 -6 -6 -6 -7 -7 -7 -7 -7 -7 -7 -8 -8 -8 -8
-8 -8 -8 -7 -7 -7 -8 -9 -9 -8 -9 -8 -8 -9 -8 -8 -7 -8 -7 -7 -7 -7 -7 -7 -7 -7 -7 -7 -6 -6 -6 -6 -6 -6 -6 -6 -6 -6 -7 -7 -7 -7 -7 -7 -8 -8 -9 -9 -9
-9 -8 -7 -8 -8 -8 -8 -8 -9 -7 -8 -9 -9 -8 -8 -8 -7 -8 -8 -7 -7 -7 -7 -6 -7 -7 -7 -7 -7 -7 -7 -6 -6 -6 -7 -7 -7 -7 -7 -7 -7 -7 -7 -7 -7 -8 -9 -9 -9
-8 -8 -8 -9 -9 -8 -8 -8 -9 -9 -9 -8 -8 -8 -8 -9 -8 -8 -8 -8 -8 -7 -7 -7 -7 -7 -7 -7 -7 -7 -7 -7 -7 -7 -7 -7 -7 -7 -7 -7 -7 -7 -8 -8 -8 -8 -8 -9 -9
-9 -8 -8 -9 -9 -8 -8 -8 -9 -9 -9 -9 -8 -8 -9 -8 -8 -8 -9 -8 -8 -8 -7 -7 -7 -7 -7 -7 -7 -7 -7 -7 -7 -7 -7 -7 -7 -7 -7 -7 -8 -8 -8 -9 -9 -9 -9 -9 -9
-9 -9 -8 -9 -8 -8 -9 -9 -9 -9 -10 -9 -8 -8 -9 -9 -8 -7 -9 -9 -9 -9 -8 -8 -7 -7 -7 -7 -7 -7 -7 -7 -7 -7 -7 -7 -7 -7 -7 -8 -8 -9 -9 -9 -9 -10 -10 -9 -10
-10 -10 -10 -9 -9 -9 -10 -9 -8 -9 -10 -9 -9 -8 -9 -9 -8 -8 -7 -7 -9 -9 -9 -9 -8 -8 -7 -7 -7 -7 -7 -7 -7 -7 -7 -7 -7 -7 -8 -8 -9 -9 -9 -9 -9 -10 -10 -10 -10
-11 -11 -11 -11 -10 -10 -9 -9 -10 -9 -9 -9 -9 -9 -9 -9 -9 -9 -8 -8 -8 -9 -10 -9 -9 -9 -8 -8 -8 -8 -8 -7 -7 -7 -8 -8 -8 -8 -8 -8 -8 -9 -9 -9 -10 -10 -10 -10 -10
-11 -11 -12 -12 -12 -10 -11 -10 -9 -9 -9 -9 -10 -9 -9 -9 -9 -9 -8 -8 -9 -9 -9 -9 -9 -9 -9 -9 -8 -8 -8 -8 -8 -8 -8 -8 -8 -8 -8 -9 -9 -9 -9 -9 -10 -10 -10 -10 -10
-12 -12 -12 -13 -14 -13 -13 -8 -10 -10 -10 -10 -9 -10 -9 -9 -9 -9 -9 -9 -8 -8 -8 -8 -9 -9 -9 -8 -9 -8 -8 -8 -8 -8 -8 -8 -8 -8 -8 -9 -9 -9 -9 -9 -9 -10 -10 -10 -10
-13 -14 -15 -16 -15 -15 -13 -10 -11 -14 -13 -10 -9 -11 -10 -10 -9 -9 -9 -9 -9 -9 -9 -8 -9 -9 -9 -9 -9 -9 -9 -8 -8 -8 -8 -8 -8 -8 -8 -8 -9 -9 -9 -9 -9 -10 -10 -10 -10
-16 -15 -16 -17 -17 -17 -15 -13 -14 -13 -13 -11 -11 -11 -9 -10 -9 -9 -9 -10 -10 -10 -10 -9 -9 -10 -9 -9 -9 -9 -9 -8 -8 -8 -8 -8 -8 -8 -8 -8 -9 -9 -9 -9 -10 -10 -10 -9 -9
-18 -17 -16 -17 -17 -18 -16 -16 -15 -14 -13 -12 -11 -12 -11 -9 -10 -10 -10 -9 -10 -10 -10 -10 -10 -10 -10 -10 -9 -9 -8 -8 -9 -8 -8 -8 -8 -8 -8 -8 -9 -9 -9 -10 -9 -9 -9 -9 -9
-16 -17 -16 -17 -18 -18 -17 -16 -16 -15 -14 -14 -13 -13 -11 -9 -11 -10 -9 -9 -10 -10 -10 -10 -10 -10 -10 -10 -10 -9 -9 -9 -8 -8 -8 -8 -8 -8 -9 -9 -9 -9 -9 -9 -9 -9 -10 -10 -10
-16 -16 -18 -17 -17 -17 -18 -17 -16 -15 -14 -14 -14 -13 -11 -11 -12 -11 -10 -11 -11 -9 -10 -11 -11 -11 -11 -12 -11 -10 -9 -9 -9 -9 -9 -9 -9 -9 -9 -9 -9 -9 -10 -10 -10 -10 -10 -10 -10
-15 -16 -17 -18 -18 -17 -17 -16 -15 -15 -14 -14 -13 -13 -12 -11 -10 -10 -11 -11 -11 -11 -12 -13 -14 -13 -13 -11 -10 -10 -10 -10 -9 -9 -9 -9 -9 -9 -10 -10 -10 -10 -10 -11 -10 -10 -10 -10 -10
-15 -17 -17 -18 -18 -17 -16 -16 -15 -15 -15 -14 -13 -12 -11 -10 -10 -11 -11 -11 -12 -13 -14 -13 -13 -12 -12 -11 -11 -11 -10 -10 -9 -10 -10 -10 -10 -10 -10 -11 -11 -11 -11 -11 -11 -11 -10 -10 -10
-16 -17 -17 -18 -18 -17 -16 -16 -15 -15 -15 -16 -14 -13 -13 -13 -14 -14 -14 -15 -14 -13 -14 -14 -13 -13 -13 -12 -12 -12 -11 -11 -11 -11 -11 -11 -12 -12 -12 -12 -12 -12 -12 -12 -12 -11 -11 -11 -10
-16 -17 -17 -18 -17 -16 -16 -16 -16 -15 -16 -15 -15 -14 -14 -13 -14 -14 -14 -13 -14 -13 -14 -14 -13 -13 -13 -13 -12 -12 -12 -12 -12 -12 -12 -13 -13 -13 -13 -13 -13 -13 -12 -12 -12 -12 -12 -11 -11
-16 -18 -17 -16 -16 -16 -16 -16 -16 -16 -16 -16 -15 -15 -15 -15 -14 -14 -14 -14 -14 -13 -14 -14 -13 -13 -13 -13 -12 -12 -12 -12 -12 -12 -12 -12 -12 -12 -12 -12 -12 -12 -12 -12 -12 -12 -11 -11 -11
-17 -17 -17 -16 -16 -16 -16 -17 -16 -16 -16 -15 -15 -15 -15 -15 -15 -14 -14 -13 -13 -14 -13 -13 -14 -13 -13 -13 -12 -12 -12 -12 -12 -12 -11 -11 -11 -11 -12 -12 -12 -12 -12 -12 -12 -12 -12 -12 -11
-17 -17 -18 -17 -16 -16 -16 -16 -16 -16 -16 -16 -15 -15 -15 -15 -15 -14 -14 -14 -14 -14 -13 -13 -13 -12 -12 -12 -13 -12 -12 -12 -12 -11 -12 -13 -12 -12 -13 -12 -13 -13 -12 -12 -12 -12 -12 -11 -12
-17 -17 -18 -16 -16 -16 -16 -15 -16 -16 -16 -16 -16 -15 -15 -15 -14 -14 -14 -14 -14 -13 -13 -13 -13 -13 -13 -14 -13 -13 -13 -13 -13 -13 -13 -13 -12 -13 -13 -13 -13 -12 -12 -12 -12 -12 -12 -11 -11
-18 -18 -17 -18 -17 -17 -17 -16 -16 -16 -16 -16 -15 -15 -15 -14 -15 -14 -14 -13 -13 -13 -14 -14 -14 -13 -13 -13 -13 -13 -13 -13 -13 -13 -13 -13 -13 -13 -13 -13 -12 -12 -12 -12 -12 -11 -11 -11 -11
Height
5872 5875 5878 5883 5888 5888 5891 5893 5895 5898 5901 5900 5905 5910 5912 5913 5914 5919 5916 5915 5916 5917 5918 5918 5919 5920 5920 5920 5920 5920 5920 5919 5919 5919 5919 5920 5919 5920 5921 5921 5921 5920 5919 5919 5918 5918 5918 5917 5915
5867 5870 5872 5876 5881 5884 5889 5890 5892 5893 5893 5899 5903 5906 5909 5910 5912 5913 5914 5914 5914 5916 5917 5917 5918 5918 5919 5919 5920 5920 5920 5919 5918 5919 5920 5921 5920 5920 5921 5921 5921 5920 5919 5918 5918 5917 5916 5915 5913
5860 5865 5866 5866 5873 5878 5885 5884 5887 5887 5892 5896 5900 5902 5904 5908 5909 5912 5912 5913 5913 5914 5915 5916 5917 5917 5918 5919 5919 5919 5919 5919 5918 5919 5919 5919 5920 5919 5919 5919 5920 5919 5918 5917 5917 5916 5915 5914 5912
5852 5857 5858 5860 5867 5876 5876 5877 5881 5884 5887 5890 5895 5899 5902 5904 5907 5909 5911 5911 5912 5912 5913 5914 5915 5915 5916 5917 5918 5918 5918 5917 5918 5918 5918 5918 5918 5918 5917 5917 5918 5917 5916 5915 5915 5915 5913 5912 5910
5845 5847 5850 5853 5861 5868 5870 5874 5877 5879 5882 5886 5889 5894 5897 5900 5902 5905 5907 5909 5910 5910 5910 5911 5912 5913 5914 5914 5915 5916 5916 5916 5917 5917 5916 5916 5916 5916 5915 5915 5915 5916 5915 5914 5914 5913 5911 5910 5908
5838 5840 5841 5846 5857 5860 5863 5867 5870 5874 5876 5880 5885 5887 5891 5896 5898 5900 5903 5905 5906 5907 5908 5908 5909 5910 5911 5912 5912 5913 5913 5913 5914 5914 5914 5914 5914 5914 5913 5913 5913 5913 5913 5912 5911 5911 5910 5908 5906
5831 5834 5835 5842 5851 5853 5855 5856 5863 5866 5871 5872 5873 5882 5883 5888 5893 5896 5898 5900 5902 5904 5905 5905 5906 5907 5908 5908 5909 5909 5910 5910 5910 5911 5911 5912 5911 5912 5911 5910 5910 5911 5910 5909 5908 5908 5907 5906 5904
5822 5824 5825 5833 5839 5844 5844 5848 5852 5858 5860 5868 5871 5873 5878 5879 5885 5890 5893 5895 5897 5899 5900 5901 5901 5903 5903 5904 5905 5905 5906 5906 5907 5908 5908 5908 5908 5908 5908 5907 5907 5906 5906 5905 5904 5903 5903 5902 5901
5811 5813 5819 5825 5830 5835 5836 5841 5849 5851 5854 5861 5865 5866 5869 5875 5879 5882 5886 5889 5892 5894 5895 5896 5897 5898 5899 5899 5901 5902 5901 5902 5903 5903 5904 5904 5904 5904 5904 5903 5903 5903 5902 5901 5900 5899 5898 5897 5896
5799 5803 5812 5815 5818 5824 5827 5832 5838 5843 5847 5853 5856 5858 5863 5867 5871 5875 5878 5881 5884 5886 5889 5890 5892 5893 5894 5895 5896 5897 5896 5897 5898 5898 5899 5899 5899 5900 5900 5900 5900 5899 5898 5897 5896 5895 5894 5893 5893
5788 5794 5800 5802 5805 5811 5818 5819 5829 5832 5833 5837 5846 5850 5854 5857 5860 5864 5868 5873 5876 5880 5883 5884 5886 5886 5888 5889 5891 5891 5892 5893 5893 5894 5894 5894 5894 5895 5895 5895 5895 5894 5893 5892 5891 5890 5889 5889 5888
5776 5782 5785 5790 5793 5801 5810 5810 5817 5822 5827 5831 5841 5845 5845 5847 5853 5854 5858 5863 5868 5871 5874 5878 5879 5880 5882 5883 5884 5885 5887 5888 5888 5889 5889 5889 5889 5889 5889 5889 5888 5887 5887 5886 5885 5884 5883 5883 5882
5763 5769 5770 5774 5780 5788 5796 5798 5807 5812 5818 5819 5828 5838 5840 5842 5844 5847 5850 5851 5856 5862 5866 5869 5872 5874 5876 5878 5878 5879 5881 5882 5883 5883 5883 5883 5882 5882 5882 5881 5881 5881 5880 5879 5878 5877 5876 5876 5875
5754 5754 5755 5760 5765 5773 5782 5788 5790 5804 5807 5807 5818 5825 5830 5832 5836 5841 5846 5848 5851 5856 5859 5860 5864 5866 5869 5871 5873 5874 5875 5875 5876 5877 5876 5876 5876 5875 5875 5875 5875 5874 5873 5872 5872 5870 5870 5869 5868
5744 5744 5744 5746 5750 5757 5767 5771 5775 5792 5798 5798 5805 5815 5816 5820 5825 5830 5835 5841 5842 5846 5851 5853 5856 5859 5862 5864 5866 5867 5867 5868 5868 5869 5869 5868 5869 5869 5869 5868 5867 5866 5866 5865 5864 5863 5863 5862 5861
5735 5733 5733 5735 5737 5743 5749 5763 5770 5773 5781 5786 5790 5802 5808 5812 5817 5820 5826 5832 5836 5840 5845 5849 5851 5853 5855 5857 5857 5858 5859 5860 5861 5861 5860 5861 5861 5862 5862 5861 5859 5858 5857 5856 5855 5855 5855 5854 5854
5725 5725 5724 5726 5729 5731 5737 5748 5757 5759 5765 5778 5781 5793 5798 5806 5807 5812 5816 5821 5826 5832 5836 5839 5842 5844 5845 5847 5848 5849 5851 5852 5852 5852 5852 5852 5853 5853 5853 5852 5851 5851 5849 5848 5847 5846 5846 5844 5843
5716 5718 5720 5719 5723 5722 5726 5735 5744 5745 5745 5763 5770 5784 5789 5795 5802 5804 5801 5807 5816 5822 5825 5828 5830 5833 5836 5837 5840 5842 5844 5844 5844 5844 5844 5844 5843 5844 5844 5843 5842 5842 5840 5838 5837 5836 5835 5836 5834
5711 5711 5715 5716 5717 5716 5718 5724 5733 5738 5744 5755 5762 5771 5779 5786 5795 5795 5794 5795 5802 5809 5812 5812 5813 5817 5821 5826 5829 5833 5834 5834 5835 5835 5833 5833 5833 5832 5832 5832 5832 5832 5830 5829 5828 5827 5828 5826 5823
5706 5705 5710 5713 5714 5713 5713 5715 5723 5733 5735 5747 5754 5759 5768 5776 5781 5779 5780 5789 5794 5794 5792 5796 5803 5807 5810 5814 5818 5822 5823 5824 5825 5825 5825 5824 5823 5823 5823 5823 5823 5823 5821 5820 5819 5819 5817 5815 5813
5704 5703 5706 5711 5710 5710 5712 5714 5719 5725 5732 5740 5746 5750 5757 5764 5771 5771 5779 5782 5778 5783 5786 5787 5792 5795 5801 5806 5811 5813 5814 5814 5814 5814 5813 5813 5813 5814 5815 5815 5813 5812 5812 5810 5811 5807 5807 5805 5804
5699 5702 5701 5705 5709 5714 5713 5720 5719 5722 5728 5734 5739 5744 5750 5756 5759 5764 5768 5773 5776 5774 5774 5779 5786 5793 5798 5800 5803 5804 5804 5805 5804 5803 5805 5806 5805 5804 5804 5804 5803 5801 5799 5798 5797 5796 5794 5793 5792
5698 5698 5699 5700 5706 5708 5710 5717 5717 5718 5721 5726 5731 5737 5741 5746 5752 5757 5762 5765 5766 5770 5778 5783 5785 5787 5790 5791 5792 5792 5794 5795 5795 5796 5797 5796 5796 5796 5794 5792 5791 5790 5788 5786 5783 5783 5781 5780 5779
5693 5694 5697 5698 5703 5706 5710 5716 5715 5715 5719 5720 5725 5731 5736 5741 5747 5751 5755 5759 5766 5770 5774 5778 5779 5780 5781 5783 5785 5785 5786 5787 5787 5787 5787 5786 5785 5783 5781 5779 5778 5776 5775 5772 5771 5769 5768 5767 5766
5688 5691 5696 5700 5701 5704 5710 5711 5714 5708 5715 5718 5721 5725 5730 5737 5744 5749 5753 5757 5759 5764 5768 5770 5771 5773 5773 5774 5774 5775 5776 5777 5776 5776 5775 5773 5772 5770 5769 5768 5766 5764 5762 5758 5756 5756 5755 5752 5752
5685 5688 5696 5699 5701 5703 5702 5706 5712 5707 5711 5715 5719 5723 5727 5731 5736 5740 5745 5749 5753 5756 5759 5761 5762 5763 5764 5764 5764 5765 5765 5764 5763 5761 5761 5760 5759 5757 5756 5754 5752 5750 5747 5745 5744 5743 5741 5738 5736
5682 5681 5690 5690 5693 5696 5700 5700 5701 5704 5707 5711 5716 5720 5724 5727 5731 5734 5737 5740 5743 5746 5750 5751 5752 5753 5754 5753 5753 5751 5750 5749 5749 5749 5749 5747 5746 5744 5742 5739 5737 5736 5734 5732 5730 5728 5726 5724 5723
5672 5679 5682 5685 5691 5695 5694 5697 5702 5699 5703 5706 5709 5713 5717 5720 5723 5726 5729 5731 5734 5736 5738 5740 5741 5741 5741 5740 5739 5738 5737 5737 5737 5737 5734 5732 5730 5729 5726 5724 5721 5720 5718 5715 5714 5712 5710 5709 5707
5665 5669 5674 5680 5684 5689 5693 5693 5693 5693 5697 5700 5703 5706 5710 5712 5715 5718 5721 5723 5724 5726 5728 5729 5729 5729 5728 5727 5726 5726 5727 5726 5724 5722 5720 5718 5716 5713 5710 5707 5705 5703 5702 5699 5696 5694 5693 5691 5691
5657 5661 5669 5671 5677 5680 5686 5687 5686 5688 5691 5693 5696 5699 5701 5703 5706 5708 5710 5713 5714 5714 5715 5716 5716 5717 5718 5717 5716 5715 5712 5711 5709 5707 5705 5702 5700 5696 5693 5690 5688 5686 5683 5680 5677 5675 5674 5672 5671
Wind_Speed
41 39 37 35 36 40 39 42 42 39 36 34 26 22 22 19 17 15 13 13 13 9 8 7 5 2 3 5 6 6 5 4 2 2 3 5 7 7 6 6 6 7 8 10 10 10 10 10 11
42 43 42 41 39 40 38 40 39 41 43 36 28 26 24 24 20 18 17 15 14 9 5 6 4 3 3 4 4 4 3 1 1 1 3 3 3 3 3 5 8 9 9 10 10 11 11 11 11
45 43 45 47 43 41 38 39 41 45 42 38 33 30 28 27 24 22 21 17 15 12 8 6 3 4 4 6 7 5 3 2 1 1 1 2 4 4 5 7 9 10 11 11 11 12 11 11 10
45 48 49 49 47 40 42 41 42 45 46 42 39 33 30 29 27 23 23 21 18 15 12 11 7 5 5 7 7 7 6 5 5 6 7 7 9 9 8 9 10 11 12 12 12 12 11 11 11
43 49 49 51 49 45 44 41 42 45 49 45 43 38 36 33 31 29 27 25 22 18 16 16 14 11 11 12 11 10 10 9 9 10 9 9 11 12 11 11 11 12 13 14 14 14 14 14 15
43 46 50 52 49 49 47 45 46 44 49 49 44 43 41 35 34 32 30 28 25 22 22 21 18 16 14 15 15 15 13 12 12 13 12 12 13 14 13 12 13 14 14 15 16 16 16 16 16
41 44 46 46 45 52 51 49 48 48 46 47 50 46 46 43 36 36 35 30 31 28 23 24 22 21 20 17 18 17 17 15 15 16 15 15 14 15 14 14 14 15 16 16 16 17 18 17 17
45 47 48 46 46 49 56 51 56 53 53 46 47 45 43 48 44 38 37 37 31 28 28 27 28 25 26 25 23 21 21 20 19 20 19 17 17 17 16 16 17 19 21 22 21 20 20 20 20
47 50 49 46 48 49 53 56 49 57 55 48 45 51 51 46 47 44 40 39 38 38 34 33 32 28 28 28 28 27 25 24 22 20 20 19 19 19 20 21 23 27 29 29 27 26 25 25 24
52 53 49 50 52 51 53 54 55 54 58 53 49 52 50 49 49 46 46 43 37 35 34 33 31 31 30 30 32 31 28 26 24 23 22 21 21 22 23 25 28 31 32 31 31 31 31 31 31
54 55 54 55 57 56 54 57 54 56 59 61 54 53 52 54 54 51 48 48 48 42 37 34 31 33 32 32 31 30 29 28 26 26 25 24 24 25 27 30 33 33 34 34 34 34 34 34 35
58 59 61 61 62 57 54 60 57 58 59 63 58 57 53 56 55 58 50 45 44 44 44 43 39 36 36 34 32 30 31 31 29 28 26 28 29 31 33 35 35 35 33 34 34 35 36 36 36
49 61 67 68 66 62 58 62 62 62 58 61 60 49 57 58 59 55 57 57 51 45 42 41 40 40 39 36 34 34 34 32 30 31 33 33 34 36 36 37 38 37 37 38 38 38 39 39 39
32 43 64 71 72 69 67 65 66 64 63 65 62 55 63 64 63 62 59 54 56 49 43 42 38 38 37 36 36 35 35 36 37 37 37 37 37 39 39 40 41 42 42 43 42 42 43 43 44
30 37 45 64 74 76 70 73 73 64 65 68 64 68 61 68 67 65 64 61 54 53 48 44 41 40 38 37 39 39 39 41 41 41 40 40 41 42 42 44 45 47 48 48 48 48 48 48 48
24 29 39 52 64 75 76 76 73 72 70 69 71 50 64 65 66 68 67 65 64 57 50 48 44 42 42 44 44 44 43 43 43 45 45 44 44 45 44 46 48 50 51 51 51 51 50 49 49
15 18 23 38 53 60 76 79 75 65 67 69 73 59 57 61 69 68 69 69 65 61 57 56 54 50 50 50 49 47 45 45 46 47 47 48 47 47 48 48 51 50 50 51 51 51 48 47 46
11 16 24 28 35 49 59 76 74 74 75 73 72 62 52 61 66 72 70 65 65 58 54 57 55 54 55 54 53 51 48 48 45 46 47 49 50 50 49 49 47 46 48 50 49 48 48 48 49
17 17 21 27 27 31 39 48 62 71 72 66 66 61 60 51 65 69 70 79 62 55 57 61 62 62 61 60 58 53 50 49 51 52 51 52 52 52 51 49 47 47 48 49 50 51 49 50 52
18 15 15 21 21 28 28 34 41 51 65 58 59 61 66 58 42 75 77 74 65 60 62 64 62 60 61 62 57 48 46 50 50 50 51 52 54 52 49 49 48 48 51 52 53 53 53 55 55
18 16 14 14 20 16 19 25 28 38 44 47 40 56 63 70 55 60 72 61 64 67 61 59 54 55 45 39 41 46 48 49 50 51 52 51 51 50 48 48 50 52 54 54 53 53 52 52 51
20 18 18 18 14 12 17 15 25 30 29 33 35 36 48 55 51 51 67 53 58 51 37 24 26 32 39 44 46 45 45 48 50 50 51 49 49 50 51 53 53 53 53 52 53 53 52 53 50
16 23 23 22 19 19 10 21 17 31 31 29 30 28 36 43 43 51 70 51 33 23 23 28 31 33 35 39 41 42 45 48 49 48 48 50 51 52 53 52 52 52 53 54 54 54 56 56 53
19 24 25 23 21 24 20 18 17 22 22 23 31 30 24 21 19 24 24 24 31 29 24 29 33 35 37 41 43 44 46 48 47 46 48 49 50 51 52 53 54 54 55 57 57 60 59 59 58
23 24 20 20 23 22 21 19 19 26 23 20 16 16 15 21 26 28 27 29 28 29 30 32 35 38 40 42 45 48 48 46 45 46 48 48 49 52 54 54 55 57 59 62 62 61 60 63 63
25 23 17 17 19 20 27 27 24 28 24 24 22 22 21 23 25 28 29 31 33 35 38 39 43 44 45 46 49 50 48 48 48 50 49 50 53 53 54 56 59 60 63 64 63 65 65 67 67
20 27 23 22 27 19 21 27 27 30 29 25 27 29 27 28 30 33 35 37 39 41 42 43 45 47 47 46 47 48 47 48 49 51 51 52 53 56 59 61 63 64 65 65 66 66 66 65 66
30 19 26 28 21 22 17 17 19 26 27 27 29 31 33 36 38 40 42 44 45 46 45 44 44 46 48 47 47 47 48 49 51 54 56 57 59 61 63 65 65 68 69 70 70 67 65 65 63
31 31 26 23 27 23 22 14 27 30 25 28 28 28 29 31 33 36 39 42 44 45 45 45 46 47 48 47 47 49 52 55 58 59 61 62 64 65 66 67 68 68 69 69 69 68 67 66 65
35 28 26 27 28 28 25 25 24 29 24 27 28 28 29 30 33 35 39 42 43 42 42 42 43 46 48 50 53 56 57 59 60 62 63 62 64 65 66 67 68 68 69 70 69 67 68 67 65
Wind_Direction
229 230 230 222 218 211 210 216 217 221 225 230 224 217 218 222 208 198 183 144 137 144 139 130 130 165 179 154 170 187 203 179 145 84 75 92 93 87 74 53 31 24 23 16 11 3 358 358 357
232 232 231 230 221 216 211 217 218 219 225 228 221 218 223 225 226 211 197 176 167 176 175 145 136 183 233 220 206 210 198 178 115 98 97 75 72 46 19 358 345 344 353 353 349 343 343 343 342
232 231 232 232 225 219 214 219 214 221 220 223 222 222 224 224 230 226 215 204 193 185 203 207 172 160 218 248 228 218 215 220 224 246 270 301 303 303 314 324 319 332 332 333 330 329 332 333 333
234 234 232 232 230 223 221 221 215 218 221 223 221 221 225 224 229 229 230 225 212 207 215 228 222 231 216 224 237 237 242 244 257 258 268 276 282 289 299 303 306 311 314 317 318 317 318 319 317
235 237 235 231 231 228 224 223 218 218 218 224 224 220 221 223 227 231 240 242 237 222 226 234 238 246 250 248 240 250 261 261 266 269 269 275 280 284 287 289 300 305 311 316 314 310 310 308 307
232 238 238 236 230 233 228 226 221 221 222 224 228 226 224 222 228 230 233 238 247 243 235 235 247 263 263 254 254 258 264 273 280 281 281 275 273 281 287 297 303 305 308 306 303 301 301 299 299
236 238 241 240 235 235 235 226 225 223 225 227 226 227 229 228 224 229 234 238 249 249 244 238 252 262 265 259 249 254 262 262 268 269 266 265 272 275 283 294 299 298 294 291 288 287 288 287 289
237 237 238 236 235 233 236 234 219 224 225 228 226 226 229 230 228 228 231 238 240 244 247 249 252 258 264 267 259 253 258 255 262 264 266 272 275 279 286 291 290 286 284 281 277 276 279 279 281
238 238 240 240 237 234 235 233 234 224 226 226 231 228 234 233 230 230 231 233 238 244 247 249 252 254 259 261 261 262 257 254 261 263 266 270 274 281 287 291 289 289 286 281 278 275 273 273 274
238 240 240 238 237 236 235 233 236 232 229 227 225 231 229 233 235 232 233 229 228 233 239 247 250 256 255 257 261 263 259 256 258 259 264 269 275 279 283 286 285 286 283 281 281 283 284 282 282
242 241 237 236 237 235 233 236 232 234 233 228 226 224 226 229 231 230 231 234 233 234 239 246 253 253 256 260 259 265 262 257 255 258 265 268 272 274 278 280 281 280 278 279 282 283 284 286 285
239 241 240 237 238 236 233 236 233 233 235 230 229 227 221 226 232 233 227 232 236 237 240 245 249 252 255 258 258 260 259 256 259 261 262 268 272 274 276 277 275 274 274 275 276 277 279 281 282
244 238 237 237 236 235 232 235 232 233 234 235 227 231 227 232 232 232 240 234 229 230 237 243 245 247 250 256 255 252 253 255 260 264 268 270 272 273 271 271 270 271 271 271 272 273 275 278 281
260 245 239 235 235 231 230 232 235 230 232 238 231 226 228 231 235 237 240 242 239 232 231 238 237 240 245 250 250 248 250 258 265 266 268 270 271 271 270 271 271 269 268 270 272 272 273 275 278
267 252 248 242 234 232 228 227 234 228 230 235 236 230 220 222 232 235 240 239 236 235 233 232 234 237 241 245 249 251 257 262 265 265 267 267 269 270 269 268 268 269 271 272 272 273 273 275 278
268 261 249 247 241 235 229 227 228 231 227 229 235 224 232 220 223 233 236 238 241 243 242 237 237 239 246 250 248 250 254 256 260 264 265 267 268 268 269 268 268 269 270 272 275 277 278 279 280
277 289 269 257 248 243 234 226 224 231 232 227 232 224 230 238 221 228 235 238 240 242 243 244 244 240 245 245 246 250 254 259 262 263 266 267 267 266 265 265 266 269 274 276 277 277 278 279 279
271 289 281 268 252 251 243 234 228 227 233 222 228 222 227 223 233 231 225 228 237 236 236 238 234 240 243 241 244 247 252 256 259 263 263 264 264 265 266 267 269 270 270 272 274 277 280 282 282
219 245 278 264 254 241 249 242 237 235 235 234 225 227 226 231 231 235 243 241 224 221 225 226 226 230 233 238 242 248 254 256 261 262 263 266 268 268 269 270 272 274 275 278 280 279 278 277 278
239 219 250 266 241 242 230 226 230 235 242 240 237 231 223 226 244 230 234 236 229 219 220 225 230 231 233 237 239 251 256 257 259 260 262 264 264 267 270 271 273 275 275 275 276 277 278 278 278
251 226 223 229 250 245 231 234 214 225 237 241 243 241 228 230 241 242 237 223 221 227 224 227 232 236 244 258 260 257 258 260 261 261 261 263 267 271 274 275 275 275 275 277 278 279 278 279 281
238 236 208 210 218 232 241 223 224 219 218 227 239 241 240 234 246 247 225 220 225 231 230 249 263 256 253 252 255 259 261 261 261 262 264 268 272 273 273 273 273 274 276 277 277 277 280 281 283
230 229 213 206 217 220 236 203 232 225 208 210 221 227 236 227 234 240 224 226 225 249 245 247 249 252 256 256 257 259 260 261 262 265 269 270 269 270 271 272 274 274 275 276 279 282 281 282 283
216 221 223 217 217 227 213 208 228 232 213 219 216 207 211 209 223 230 232 233 241 239 245 248 246 247 252 258 261 260 261 263 265 267 266 267 268 268 268 270 274 278 279 280 280 280 281 283 283
214 217 220 224 218 219 224 224 213 209 228 225 222 217 209 223 224 222 223 230 237 243 242 243 244 249 252 255 258 260 261 262 261 260 260 262 265 267 269 272 275 276 276 277 277 280 282 285 285
216 213 203 228 225 228 229 217 229 240 231 224 223 222 221 225 230 232 233 236 240 245 249 249 247 249 254 259 260 261 263 262 262 263 267 269 270 273 274 274 274 274 274 275 276 280 281 282 282
221 214 207 226 213 202 233 222 218 234 232 232 224 227 230 232 233 236 239 242 245 246 248 249 250 252 255 261 263 262 261 264 267 270 272 274 275 274 272 274 275 276 275 276 277 279 281 279 281
202 230 220 215 217 216 220 232 229 243 237 240 241 238 237 237 238 240 242 243 247 250 252 252 253 255 260 261 258 262 267 270 272 273 272 274 276 276 277 277 280 280 279 280 281 280 279 278 278
219 217 215 216 216 223 228 220 237 239 240 242 242 239 236 234 235 238 241 246 249 251 252 254 255 256 258 262 265 267 268 269 269 271 273 275 277 279 280 280 280 281 280 280 280 279 278 278 277
219 211 222 226 222 226 214 239 241 250 243 241 241 241 239 238 238 238 240 243 247 251 253 255 257 259 260 262 263 265 268 271 274 276 277 278 279 279 279 279 280 279 280 280 281 281 280 279 278